AirNav   Everest Fuels
 
 1197 users online  

PAGQ Big Lake Airport
Big Lake, Alaska, USA

GOING TO BIG LAKE?


FAA INFORMATION EFFECTIVE 02 JANUARY 2020

Location

FAA Identifier: BGQ
Lat/Long: 61-32-04.8600N 149-48-45.1600W
61-32.081000N 149-48.752667W
61.5346833,-149.8125444
(estimated)
Elevation: 157.5 ft. / 48 m (estimated)
Variation: 19E (2010)
From city: 1 mile SE of BIG LAKE, AK
Time zone: UTC -9 (UTC -8 during Daylight Saving Time)
Zip code: 99652

Airport Operations

Airport use: Open to the public
Activation date: 05/1951
Control tower: no
ARTCC: ANCHORAGE CENTER
FSS: KENAI FLIGHT SERVICE STATION [907-283-7211]
NOTAMs facility: ENA (NOTAM-D service available)
Attendance: UNATNDD
Wind indicator: lighted
Segmented circle: yes
Lights: ACTVT MIRL RY 07/25 - 122.8
Beacon: white-green (lighted land airport)
Operates sunset to sunrise.

Airport Communications

CTAF: 122.8
ANCHORAGE APPROACH: 118.6
ANCHORAGE DEPARTURE: 118.6
CLASS C: 118.6
WX AWOS-3P at IYS (8 nm E): 135.25 (907-373-3801)
WX AWOS-3P at BCV (11 nm SE): 135.55 (907-688-0826)
WX ASOS at FRN (17 nm S): 134.25
WX ASOS at MRI (19 nm S): 124.25 (907-271-5277)

Nearby radio navigation aids

VOR radial/distance  VOR name  Freq  Var
BGQr096/4.9BIG LAKE VORTAC112.5019E
TEDr353/22.4ANCHORAGE VOR/DME113.1518E

 
NDB name  Hdg/Dist  Freq  Var  ID
CAMPBELL LAKE001/22.833816ECMQ -.-. -- --.-

Airport Services

Parking: tiedowns
Airframe service: MAJOR
Powerplant service: MAJOR

Runway Information

Runway 7/25

Dimensions: 2450 x 70 ft. / 747 x 21 m
Surface: gravel, in good condition
Runway edge lights: medium intensity
RUNWAY 7  RUNWAY 25
Latitude: 61-32.081000N61-32.081000N
Longitude: 149-49.173833W149-48.331500W
Elevation: 154.9 ft.150.9 ft.
Traffic pattern: leftleft
Runway heading: 071 magnetic, 090 true251 magnetic, 270 true
Markings: NSTD, in good conditionNSTD, in good condition
Runway end identifier lights: nono
Touchdown point: yes, no lightsyes, no lights
Obstructions: 56 ft. trees, 200 ft. right of centerline42 ft. trees, 207 ft. left of centerline

Airport Ownership and Management from official FAA records

Ownership: Publicly-owned
Owner: ALASKA DOT&PF CENTRAL REGION
PO BOX 196900
ANCHORAGE, AK 99519-6900
Phone 907-269-0770
Manager: KYLER HYLTON
289 INNER SPRING LOOP, DOT&PF CENTRAL REGION
PALMER, AK 99645
Phone 907-745-2159

Airport Operational Statistics

Aircraft based on the field: 75
Single engine airplanes: 68
Multi engine airplanes: 2
Helicopters: 2
Ultralights: 3
    
Aircraft operations: avg 26/day *
84% transient general aviation
16% local general aviation
* for 12-month period ending 31 December 2018

Additional Remarks

LOW FLYING ACFT INVOF APCH TO BIG LAKE VOR.
ARPT HAS DESIGNATED TRANSIENT ACFT PARKING AVBL. TRANSIENT ACFT PARKING IS DESIGNATED WITH GREEN CONES.
BE ALERT: FROST HEAVE ON RY APRXLY 2200 FT.
RY COND NOT MONITORED; RECOMMEND VISUAL INSPECTION PRIOR TO USE.
UPDRAFT OFF OF RISING HILL ON APCH TO RY 25.
RY 07+15' ROAD PARALLEL TO RY END.
190 FT AGL LIGHTED TWR 2 NM NE OF ARPT.
BE ALERT: OCCASIONAL ULTRA LIGHT TRAFFIC.

Instrument Procedures

NOTE: All procedures below are presented as PDF files. If you need a reader for these files, you should download the free Adobe Reader.

NOT FOR NAVIGATION. Please procure official charts for flight.
FAA instrument procedures published for use from 02 January 2020 at 0901Z to 30 January 2020 at 0900Z.

 
IAPs - Instrument Approach Procedures
RNAV (GPS) RWY 07   download (208KB)
RNAV (GPS) RWY 25   download (193KB)
VOR RWY 07   download (178KB)
NOTE: Special Take-Off Minimums/Departure Procedures apply   download (148KB)

Other nearby airports with instrument procedures:

PAWS - Wasilla Airport (8 nm E)
PAUO - Willow Airport (15 nm NW)
PAFR - Bryant Army Airfield Heliport (17 nm S)
PAED - Elmendorf Air Force Base (17 nm S)
PAMR - Merrill Field Airport (19 nm S)
 
Loc | Ops | Rwys | IFR | FBO | Links
Com | Nav | Svcs | Stats | Notes

Crowley
 
Area around PAGQ (Big Lake Airport)
 
Road maps at: MapQuest Bing Google
 
Aerial photo
WARNING: Photo may not be current or correct
Aerial photo of PAGQ (Big Lake Airport)
Do you have a better or more recent aerial photo of Big Lake Airport that you would like to share? If so, please send us your photo.

 
Sectional chart

 
Airport distance calculator
Flying to Big Lake Airport? Find the distance to fly.

From to PAGQ

Sunrise and sunset
Times for 26-Jan-2020
 Local
(UTC-9)
 Zulu
(UTC)
Morning civil twilight08:4517:45
Sunrise09:3718:37
Sunset16:4701:47
Evening civil twilight17:3902:39

Current date and time
Zulu (UTC)  26-Jan-2020 16:27:22
Local (UTC-9)  26-Jan-2020 07:27:22
 
METAR
PABV 
11nm SE 
261556Z AUTO 20007KT 10SM CLR M22/M26 A2933 RMK AO2 SLP939 T12221256 FZRANO
PAFR 
17nm S 
261558Z AUTO 00000KT 9SM CLR M31/M34 A2926 RMK AO2 SLP929 T13131343 FZRANO $
PAED 
17nm S 
261556Z AUTO 04004KT 10SM CLR M24/M27 A2931 RMK AO2 SLP926 T12391267
PAMR 
19nm S 
261553Z 09003KT 10SM CLR M28/M31 A2932 RMK AO2 SLP933 T12781306 $
PAAQ 
21nm E 
261553Z AUTO 00000KT 10SM CLR M25/M28 A2929 RMK AO2 SLP927 T12501283 TSNO
PALH 
22nm S 
261553Z 00000KT 10SM CLR M25/M28 A2933 RMK AO2 SLP935 I1000 T12501278
TAF
PAED 
17nm S 
261100Z 2611/2717 03009KT 9999 SKC QNH2932INS BECMG 2703/2704 01009KT 9999 BKN060 620606 QNH2935INS BECMG 2708/2709 02009KT 9999 VCSH BKN060 610606 QNH2932INS TXM16/2623Z TNM25/2617Z
PAAQ 
21nm E 
261151Z 2612/2712 00000KT P6SM SKC FM262000 VRB03KT P6SM VCSH SCT030 BKN050 FM270200 VRB03KT P6SM FEW060 SCT100
NOTAMs
Click for the latest NOTAMs
NOTAMs are issued by the DoD/FAA and will open in a separate window not controlled by AirNav.

 

 
 

Would you like to see your business listed on this page?

 If your business provides an interesting product or service to pilots, flight crews, aircraft, or users of the Big Lake Airport, you should consider listing it here.  To start the listing process, click on the button below
 
Add a business
 

Other Pages about Big Lake Airport

Update a link
 
Copyright © AirNav, LLC. All rights reserved. Privacy Policy  Contact